Location: Ellerstadt
(49.4644°N, 8.2615°E)
Time: 03:16:58
(UTC+00:00)

CSL-04 Rocket - Pass Details

Date: 03 March 2021
Orbit: 805 x 861 km, 98.9° (Epoch: 11 April)

Event Time Altitude Azimuth Distance (km) Brightness Sun altitude
Rises 18:22:07 0° 161° (SSE) 3,425 6.6 -12.0°
Reaches altitude 10° 18:24:29 10° 160° (SSE) 2,490 5.9 -12.4°
Maximum altitude 18:30:02 85° 73° (ENE) 865 3.7 -13.3°
Drops below altitude 10° 18:35:35 10° 346° (NNW) 2,484 6.4 -14.2°
Sets 18:37:56 0° 346° (NNW) 3,417 7.1 -14.5°
